Location: Barruelo
(41.2448°N, 3.8231°W)
Time: 20:49:11
(UTC+00:00)

Cosmos 1606 Rocket - Pass Details

Date: 11 December 2025
Orbit: 596 x 625 km, 82.5° (Epoch: 12 January)

Event Time Altitude Azimuth Distance (km) Brightness Sun altitude
Rises 17:52:08 0° 188° (S) 2,874 7.4 -12.0°
Reaches altitude 10° 17:54:20 10° 189° (S) 1,977 6.5 -12.4°
Maximum altitude 17:58:44 84° 276° (W) 631 3.6 -13.2°
Drops below altitude 10° 18:03:11 10° 6° (N) 2,004 5.9 -14.0°
Sets 18:05:26 0° 8° (N) 2,917 6.8 -14.4°
